STARLINK-1570, 46059

Orbit data source: Space-Track

STARLINK-1570, 46059 is a payload satellite owned by SpaceX/Seattle (US) in LEO that was launched on Fri, 07 Aug 2020 UTC via an FALCON 9 launch vehicle from the Air Force Eastern Test Range (AFETR). Payload-class satellites include a variety of spacecraft equipped with specific instruments for various scientific and technological missions. These include communications satellites like Starlink; space stations such as the ISS; scientific satellites like the Hubble; Earth observation satellites from companies like Planet Labs, Umbra, and HawkEye 360; GPS; miniature CubeSats for education and research; and military/defense satellites.

Loading next visibility...
Identifier
46059, 2020-055AJ
Orbit
LEO
Country
Flag of USUS
Related business
Manufacturer
SpaceX/Seattle
Mission
Operational Commercial Communications
Bus & Motor
STARLINK, Unknown motor
Mass
260 kg wet, ~248 kg dry
Launch date (UTC)
2020-08-07 (6 years ago)
Launch vehicle
FALCON 9
Launch site
Air Force Eastern Test Range (AFETR)
Object type
Payload
Rocket body
Debris
Shape & HBR
Box + 1 Pan, 10.1 m
Radar Cross Section
13.562 m², Large (>1 m²)

Expand to show TLE details & history
Last TLE update: 13 hours ago

TLE from 13 hours ago
0 STARLINK-1570
1 46059U 20055AJ  26263.38697194  .00002567  00000-0  94425-4 0  9990
2 46059  53.1584 287.8273 0001117  80.4950 279.6177 15.31704878338866
Epoch: 2026-09-20T09:17Z
TLE epoch observation values (Epoch: 2026-09-20T09:17:14.375Z)
Latitude
-0.00008°
Longitude
149.23546°
Altitude
471.498 km
Speed
7.632 km/s
True Right ascension
19h 11m 18s
True Declination
0° 00' 00"
Sunlit
Object was in daylight at epoch
Visualization orbit readout
Latitude
Unknown
Longitude
Unknown
Altitude
Unknown
Speed
Unknown
Apparent Right ascension
Unknown
Apparent Declination
Unknown
Sunlit
N/A
Visualization observer readout
Local Sidereal Time
15:01:49
Azimuth
Unknown
Elevation
Unknown
Doppler factor
Unknown
Orbital elements
Apogee altitude
471.747 km
Perigee altitude
470.217 km
Semi-major axis
6,849.119 km
Eccentricity
0.00011
Inclination
53.1584°
RAAN
287.8273°
Arg. of periapsis
80.495°
True anomaly
279.60508°
Mean anomaly
279.6177°
Eccentric anomaly
279.61139°
Mean motion
3.82905 °/min
Orbital period
94.02 mins
BSTAR
0.000094425
Loading maneuver chart data...
Computing Atmospheric mass density...
Loading historical data...
Loading historical data...
Loading historical data...
Loading historical data...
Loading historical data...
Loading historical data...
Loading historical data...

Documentation

Showing up to 5 results
|